Theta_e
326 326 326 326 326 327 328 329 329 328 327 328 326 325 325 326 326 328 328 327 328 328 327 327 327 327 327 328 328 328 327 327 326 326 326 326 325 324 323 323 323 324
326 326 326 326 326 327 328 329 329 329 328 328 328 326 324 325 326 327 326 326 327 326 325 325 325 326 327 327 327 326 325 324 324 325 325 325 324 323 324 323 323 322
326 325 325 325 325 326 327 328 328 328 328 328 327 326 324 325 325 326 326 325 326 325 324 325 326 326 326 327 326 326 325 324 324 324 325 324 322 323 323 322 322 322
325 326 326 326 326 326 327 327 327 327 326 325 326 325 325 325 325 325 325 328 324 324 323 323 325 325 325 324 325 324 324 324 324 324 323 322 323 323 322 322 321 321
325 325 326 327 327 327 326 326 326 326 325 325 324 324 325 324 323 324 323 323 323 322 322 322 322 323 323 323 324 322 322 322 321 323 323 322 322 323 321 322 322 321
325 326 326 326 326 326 326 326 326 325 324 323 323 323 323 323 323 322 321 320 320 321 321 321 322 322 322 322 321 322 322 322 321 322 322 322 320 320 323 322 322 321
324 324 325 325 325 325 325 325 324 324 323 323 322 322 321 321 321 320 319 319 319 320 320 320 320 320 320 321 321 320 320 321 320 322 322 320 321 321 323 322 322 322
324 325 325 325 324 325 325 324 324 323 322 322 322 321 322 321 321 320 318 318 319 319 318 319 320 320 319 320 320 319 318 320 320 320 320 319 321 321 320 322 321 321
323 323 323 323 323 324 324 324 323 322 322 322 321 321 321 321 320 319 318 319 318 317 318 318 319 319 318 319 319 319 319 318 319 319 319 319 320 321 321 321 320 320
320 321 322 322 322 322 322 322 322 321 322 321 321 321 320 320 320 319 318 318 317 316 317 317 317 317 317 318 318 318 318 317 316 317 318 319 320 319 320 321 321 319
318 320 321 321 321 321 321 322 322 322 322 321 321 320 320 319 319 319 318 318 317 316 316 317 317 317 316 315 315 316 316 315 315 316 316 317 318 318 322 320 320 320
318 318 319 319 320 320 321 321 321 321 321 320 320 319 317 319 318 318 318 317 316 316 316 317 316 316 316 315 314 313 313 313 313 313 314 315 316 318 319 319 319 319
317 318 318 318 319 320 320 321 321 321 320 320 320 320 318 317 317 318 317 317 316 315 315 315 315 314 313 312 312 311 311 311 311 313 314 315 315 316 316 317 318 318
315 316 317 317 318 319 320 320 320 320 320 320 320 320 319 318 317 315 314 314 313 312 312 313 312 311 310 311 311 311 311 311 313 314 313 313 313 313 313 314 314 315
316 316 316 317 318 318 319 319 319 319 319 319 319 318 317 317 316 314 312 310 309 309 309 309 310 309 310 311 312 311 312 313 314 314 313 312 312 313 313 314 314 315
317 316 317 318 318 318 318 318 318 318 318 318 317 317 315 314 313 312 311 310 308 307 307 307 307 307 305 302 308 313 314 314 314 313 314 314 314 314 314 315 315 316
317 317 317 317 316 316 316 317 317 317 317 315 314 314 313 313 311 310 308 308 307 306 305 305 304 304 298 294 298 305 314 314 314 314 315 315 314 314 314 315 316 316
314 315 316 316 315 314 315 315 315 315 313 312 312 311 311 310 308 307 306 306 305 305 304 304 303 299 297 297 299 302 307 314 315 315 315 315 315 315 315 315 316 316
312 313 314 314 314 314 314 314 313 312 312 311 310 310 309 308 306 306 305 305 305 305 304 304 303 295 297 298 299 300 303 310 315 315 315 315 314 314 314 314 313 312
311 312 312 312 313 313 313 312 311 309 309 308 308 307 306 305 304 304 304 304 304 304 303 302 301 296 297 298 300 300 302 307 315 315 314 313 313 313 313 313 313 312
311 311 311 312 312 312 311 310 309 308 306 305 305 305 304 303 303 303 303 303 303 303 302 300 300 294 296 298 299 301 302 306 314 314 313 312 312 313 313 313 311 310
310 310 310 311 311 310 309 307 306 305 304 304 303 302 303 303 302 302 301 301 301 301 301 300 298 293 294 295 297 299 303 313 313 312 310 309 309 309 309 309 309 308
308 310 309 309 308 307 306 304 303 302 302 303 301 301 300 300 300 300 300 300 301 301 300 299 298 295 293 294 296 298 306 312 310 308 307 305 304 305 305 306 305 304
305 307 308 308 307 306 304 303 303 302 301 301 300 299 298 298 299 299 299 300 299 299 299 299 297 295 293 296 298 298 303 309 308 305 303 302 301 301 301 301 303 305
303 305 307 307 306 305 304 303 302 301 301 300 299 299 298 299 299 297 297 298 298 299 300 298 297 296 293 294 297 299 303 306 304 302 300 300 300 299 300 299 299 298
302 303 305 306 305 304 304 303 302 302 301 300 299 299 298 298 297 297 295 295 296 296 296 296 296 295 293 292 294 296 299 306 305 303 300 300 300 299 299 298 298 298
Wind_Speed
3 3 4 5 5 5 6 7 7 7 7 6 6 6 7 6 6 7 7 6 6 5 5 5 4 3 2 5 5 5 6 6 5 5 6 6 5 6 6 6 7 6
3 3 3 4 3 3 5 6 6 7 6 6 6 6 5 5 6 7 7 7 6 6 4 4 5 5 6 6 6 6 5 5 5 4 6 6 5 6 6 7 6 5
4 3 4 5 6 6 6 6 5 5 6 5 5 5 5 4 6 6 6 7 6 5 6 6 6 7 7 6 7 6 6 6 5 5 5 6 6 6 6 6 5 7
4 4 5 6 7 6 6 5 4 4 4 5 6 5 5 5 5 6 6 6 6 5 5 5 6 6 6 7 6 6 5 6 5 6 6 4 5 5 5 5 5 5
4 5 5 6 6 7 6 6 6 5 5 4 5 5 5 4 5 5 5 5 6 6 5 5 5 5 5 5 5 6 5 5 5 5 5 5 4 4 4 5 6 6
4 3 5 5 5 5 6 6 6 5 4 4 5 4 4 4 5 6 6 7 6 6 6 6 6 5 5 6 5 5 5 5 5 5 5 5 4 3 4 5 5 5
2 2 3 5 4 4 5 5 5 4 4 4 5 6 6 6 6 6 7 7 7 7 7 6 6 5 5 5 5 5 4 5 5 5 6 4 4 3 3 4 5 5
5 3 2 0 2 2 4 4 4 4 4 4 5 5 6 6 6 6 6 8 7 7 6 6 6 6 6 6 6 6 5 4 5 6 5 5 5 5 3 3 4 5
4 2 2 3 4 3 4 3 2 4 4 4 4 5 4 5 5 4 5 7 8 7 7 6 7 7 6 6 6 7 7 5 5 6 6 6 6 5 4 4 4 4
4 3 1 1 3 4 7 7 6 4 3 4 3 3 5 3 4 4 5 6 8 7 7 7 6 6 6 6 7 7 7 7 6 6 6 6 6 6 5 5 5 5
2 5 5 5 5 6 6 5 5 6 7 7 6 6 5 4 3 2 5 6 7 7 6 6 6 7 6 6 5 5 7 7 7 6 6 5 5 5 4 5 6 6
1 1 3 4 5 6 7 7 6 6 5 5 4 2 3 2 2 3 4 6 7 7 6 6 6 6 6 7 6 6 5 5 5 5 5 5 5 5 5 5 6 6
2 4 3 4 4 5 5 5 6 7 7 6 5 5 6 3 1 2 1 5 5 6 6 6 6 5 5 5 5 5 5 6 6 6 6 5 5 5 5 4 4 6
2 2 3 3 3 4 5 4 4 5 6 5 4 4 6 7 2 2 3 5 5 5 5 4 5 5 5 5 5 5 6 6 6 7 7 6 6 5 5 5 5 5
3 1 1 2 3 4 5 6 5 5 5 3 6 5 3 1 4 4 7 7 6 6 6 5 5 5 4 5 6 6 5 7 7 7 8 8 7 7 6 7 6 6
5 2 2 3 3 5 5 6 6 5 7 5 3 6 4 4 4 5 6 7 7 6 5 5 4 3 3 2 3 7 7 7 6 6 8 9 9 9 8 8 7 7
5 4 2 2 2 2 4 5 6 5 4 6 5 5 6 5 4 7 7 6 6 6 6 5 3 2 3 3 6 10 9 8 8 7 7 8 8 10 9 8 6 6
7 4 3 1 3 4 3 4 4 6 6 7 6 6 5 4 6 7 7 6 5 6 6 4 3 6 3 6 9 10 10 9 8 7 7 7 8 9 7 7 7 7
7 6 4 4 4 2 2 5 5 6 6 7 7 5 5 6 6 7 7 6 6 7 6 5 5 8 3 9 12 13 14 12 7 8 9 8 8 8 7 6 7 7
8 8 7 5 4 4 5 6 7 8 8 7 6 7 6 7 7 9 7 8 7 7 6 7 7 9 5 8 13 14 15 12 9 9 9 8 7 7 7 7 7 7
10 8 7 7 6 6 7 7 8 8 10 8 7 7 6 6 8 8 8 7 8 7 6 8 8 11 10 8 8 14 15 12 9 9 9 9 8 8 7 6 5 5
10 9 9 8 7 7 8 8 8 9 10 8 9 8 5 7 8 8 8 8 7 8 8 9 9 13 11 11 10 7 10 9 8 9 9 8 8 8 7 7 7 7
10 9 9 9 9 9 9 8 8 10 9 7 10 8 7 7 10 8 6 6 7 7 9 8 9 12 12 11 11 12 6 7 9 8 7 8 6 5 6 5 6 6
10 10 9 10 10 9 8 8 6 7 10 9 11 9 8 6 10 8 8 8 8 9 7 9 8 11 13 12 14 15 10 6 5 6 8 7 6 6 6 7 8 12
10 10 9 9 11 10 8 8 8 7 7 10 10 11 6 7 9 9 8 8 8 8 12 11 9 11 15 12 13 13 10 7 8 8 8 6 6 7 6 5 5 9
10 10 10 10 10 10 9 8 7 7 7 8 9 8 6 8 9 9 11 9 8 10 11 11 11 11 13 15 13 12 9 7 5 8 7 7 6 4 5 5 5 5
Wind_Direction
214 164 202 220 216 187 170 167 169 173 170 170 173 186 195 179 162 161 160 167 180 187 184 180 144 111 162 166 162 163 176 182 174 174 173 176 176 164 172 171 173 180
285 173 195 234 238 206 184 172 170 173 171 168 172 174 191 169 174 161 163 168 172 178 163 118 148 171 187 168 160 155 150 151 155 149 159 174 173 169 179 178 173 155
299 230 210 208 212 198 187 181 174 175 169 167 154 160 170 189 173 169 165 164 166 163 151 164 168 173 194 164 152 147 152 148 151 156 158 171 163 174 176 166 160 171
274 259 232 214 211 198 180 175 181 179 156 154 176 177 177 183 178 170 166 162 157 157 160 158 172 171 170 144 146 143 162 144 152 151 146 142 166 161 159 156 150 149
255 235 236 222 201 187 166 172 178 183 186 170 159 170 172 172 159 158 154 150 153 152 155 159 153 163 137 130 130 130 133 132 136 143 139 150 159 149 152 150 156 160
300 258 232 210 199 168 157 165 168 172 164 155 163 154 161 160 158 156 153 146 152 151 152 155 156 151 137 127 126 137 140 135 145 140 144 155 148 136 144 155 154 157
158 184 232 216 189 149 141 143 146 152 162 164 140 153 154 157 155 150 149 147 144 149 152 155 151 143 138 135 134 136 140 140 145 150 151 146 136 135 132 148 157 163
141 129 188 67 29 94 121 125 133 138 151 142 160 163 163 163 156 157 148 142 137 139 142 144 147 150 149 144 141 138 140 146 146 145 137 146 149 149 154 147 145 144
137 161 186 144 128 79 60 63 56 116 130 154 166 165 171 161 154 155 147 138 129 134 140 143 150 153 157 152 153 151 149 151 152 150 149 149 159 166 163 138 127 127
92 77 92 124 109 117 133 146 137 128 125 137 151 166 160 154 153 157 154 142 131 131 137 138 141 148 153 158 156 154 153 154 155 157 158 161 161 164 157 161 146 132
71 131 143 127 132 132 138 149 157 146 146 156 167 166 161 148 136 188 161 147 137 137 137 147 156 152 147 145 151 158 154 153 160 168 168 151 149 155 156 150 153 155
102 139 146 153 152 149 151 157 154 143 146 134 119 95 45 65 112 215 181 147 138 141 151 157 154 158 159 158 155 147 146 144 135 117 111 118 123 122 130 136 155 157
179 167 177 176 169 159 154 159 157 148 144 140 138 131 104 39 339 223 271 127 126 128 141 150 149 144 143 141 140 142 140 129 115 104 101 104 101 108 107 114 139 158
262 234 199 188 172 160 156 152 147 143 134 124 123 138 150 145 182 185 89 81 87 93 90 112 124 115 113 114 114 129 124 112 118 118 110 95 86 81 78 87 85 80
303 294 205 186 166 150 142 144 141 120 111 116 127 87 21 66 133 167 112 93 75 79 80 81 95 97 101 124 124 107 111 119 123 124 121 110 97 82 70 76 71 79
321 301 226 192 171 152 145 137 131 128 130 112 83 107 132 132 133 102 94 101 101 84 78 78 78 85 66 97 138 135 124 116 112 119 119 117 109 98 86 81 76 70
352 322 286 190 189 120 107 110 114 115 121 107 99 107 126 125 130 101 94 93 97 103 89 67 39 34 3 181 141 133 124 123 121 112 108 108 106 108 106 95 85 80
360 347 338 11 45 66 89 81 88 103 99 90 90 97 94 99 87 89 85 74 79 71 68 58 50 8 358 149 128 123 120 117 114 112 106 98 103 101 104 106 102 83
14 6 7 26 52 41 54 79 70 68 71 85 92 79 76 75 83 81 75 64 65 67 57 45 40 11 75 126 120 117 117 113 102 111 107 102 98 94 98 99 94 84
8 17 10 25 46 56 58 64 72 68 64 58 62 68 74 95 74 73 65 65 61 62 57 41 36 15 56 117 123 121 117 109 112 104 99 95 94 97 106 112 117 118
14 15 20 22 35 69 78 72 69 70 69 61 59 67 58 60 78 75 69 66 60 60 63 48 35 23 52 60 104 122 113 110 108 101 98 94 87 87 93 98 93 99
14 22 25 27 43 51 64 71 72 78 78 74 74 60 42 80 65 70 70 69 64 68 72 53 34 29 39 46 37 31 103 108 106 102 103 98 92 94 95 96 106 109
11 22 32 34 33 45 52 59 76 79 76 76 73 64 50 49 74 61 58 62 62 60 72 65 46 24 38 46 43 37 30 88 102 97 94 89 79 71 72 77 81 90
13 20 32 42 46 46 51 53 47 77 82 78 79 71 63 44 67 57 50 57 62 60 57 71 49 23 26 50 62 56 59 54 58 85 90 86 79 63 68 62 55 60
16 23 30 44 53 50 46 57 54 60 86 91 94 89 68 76 68 61 45 44 47 58 57 63 54 33 23 30 67 84 85 81 73 58 47 46 64 70 63 70 58 48
19 25 31 38 54 54 47 47 46 50 39 82 85 79 82 73 70 68 60 37 30 46 42 44 50 38 24 28 40 43 63 89 95 105 105 88 61 45 61 46 44 47